User: anonymous   Login
Location: Unspecified
(0.0000°N, 0.0000°E)
Time: 20:39:45
(UTC+00:00)
Language:

NOSS 2-1 (C) - Orbit

View from above orbital plane
View from above orbital plane
View from above satellite
View from above satellite

Ground track
Ground track

The orbit data is extracted from the following two-line orbital elements,

1 20691U 90050C   17199.91601702 0.00000060  00000-0  15040-4 0    08
2 20691  63.3430 111.1820 0794000  31.4392 328.5608 13.41703327    08
Epoch (UTC): 18 July 2017 21:59:03
Eccentricity: 0.0794000
inclination: 63.3430°
perigee height: 509 km
apogee height: 1697 km
right ascension of ascending node: 111.1820°
argument of perigee: 31.4392°
revolutions per day: 13.41703327
mean anomaly at epoch: 328.5608°
orbit number at epoch: 0

The dashed part of the orbit path shows where the satellite is in the earth's shadow,  

DLR